Terminal Aerodrome Forecast
Issued by NWS Wilmington, OH

Current Version | Previous Version | Graphics & Text | Print | Product List | Glossary On
Versions: 1 2 3 4 5 6 7 8 9 10 11 12 13 14 15 16 17 18 19 20 21 22 23 24 25 26 27 28
000
FTUS41 KILN 190500
TAFCVG
TAF
KCVG 190538Z 1906/2012 33003KT P6SM SCT020 BKN050
      TEMPO 1906/1910 BKN018
     FM191500 36005KT P6SM BKN025
     FM200300 06003KT P6SM BKN025=

USA.gov is the U.S. government's official web portal to all federal, state and local government web resources and services.